This demonstration page uses our WeatherBlox Daily Observations layout. Learn more.

Left ArrowRight Arrow

Hourly Observations for January 29, 2016

Temp ( °F °C ) Dew Point ( °F °C ) Humidity (%) Winds ( mph kmh ) Pressure ( in mb ) Visibility ( mi km ) Precip ( " mm )
12:53 am 00:53 Clear 37 2.8 30 -1.1 76 76 S 7 11 29.84 1011 10 16 0.00 0.00
1:53 am 01:53 Clear 35 1.7 29 -1.7 78 78 S 5 7 29.82 1010 10 16 0.00 0.00
2:53 am 02:53 Clear 35 1.7 29 -1.7 78 78 S 7 11 29.80 1009 10 16 0.00 0.00
3:53 am 03:53 Clear 34 1.1 29 -1.7 82 82 S 7 11 29.77 1008 10 16 0.00 0.00
4:53 am 04:53 Clear 34 1.1 29 -1.7 82 82 S 6 9 29.75 1008 10 16 0.00 0.00
5:53 am 05:53 Clear 33 0.6 28 -2.2 82 82 SSW 6 9 29.75 1007 10 16 0.00 0.00
6:53 am 06:53 Clear 32 0 28 -2.2 85 85 S 6 9 29.73 1007 10 16 0.00 0.00
7:53 am 07:53 Sunny 33 0.6 28 -2.2 82 82 SSW 6 9 29.73 1007 10 16 0.00 0.00
8:53 am 08:53 Sunny 36 2.2 28 -2.2 73 73 SSW 10 17 29.72 1006 10 16 0.00 0.00
9:53 am 09:53 Sunny 39 3.9 29 -1.7 67 67 SSW 9 15 29.70 1006 10 16 0.00 0.00
10:53 am 10:53 Sunny 46 7.8 33 0.6 61 61 SW 6 9 29.68 1005 10 16 0.00 0.00
11:53 am 11:53 Sunny 54 12.2 34 1.1 47 47 W 10 17 29.67 1005 10 16 0.00 0.00
12:53 pm 12:53 Sunny 57 13.9 35 1.7 44 44 NW 16 26 29.64 1004 10 16 0.00 0.00
1:53 pm 13:53 Sunny 56 13.3 36 2.2 47 47 NNW 15 24 29.62 1003 10 16 0.00 0.00
2:53 pm 14:53 Sunny 55 12.8 37 2.8 51 51 N 18 30 29.64 1004 10 16 0.00 0.00
3:53 pm 15:53 Sunny 51 10.6 37 2.8 59 59 N 14 22 29.68 1005 10 16 0.00 0.00
4:53 pm 16:53 Sunny 51 10.6 36 2.2 56 56 N 16 26 29.72 1007 10 16 0.00 0.00
5:53 pm 17:53 Clear 43 6.1 34 1.1 71 71 NNW 7 11 29.76 1008 10 16 0.00 0.00
6:53 pm 18:53 Clear 37 2.8 31 -0.6 79 79 NW 6 9 29.78 1009 10 16 0.00 0.00
7:53 pm 19:53 Clear 40 4.4 33 0.6 77 77 W 5 7 29.75 1008 10 16 0.00 0.00
8:53 pm 20:53 Clear 33 0.6 29 -1.7 85 85 WNW 8 13 29.80 1009 10 16 0.00 0.00
9:53 pm 21:53 Clear 33 0.6 29 -1.7 85 85 WNW 8 13 29.78 1009 10 16 0.00 0.00
10:53 pm 22:53 Clear 37 2.8 30 -1.1 76 76 W 6 9 29.77 1008 10 16 0.00 0.00
11:53 pm 23:53 Clear 34 1.1 28 -2.2 79 79 WSW 6 9 29.74 1007 10 16 0.00 0.00

Powered by AerisWeather